Location: Avenches
(46.8809°N, 7.0410°E)
Time: 11:59:41
(UTC+00:00)

Daily predictions for brighter satellites

Satellite Brightness Start Highest point End
(mag) Time Altitude Azimuth Time Altitude Azimuth Time Altitude Azimuth
Okean O Rocket 3.4 16:13:31 10° E 16:15:21 12° ENE 16:17:11 10° NNE
USA 267 3.4 16:14:45 10° NE 16:21:18 73° SE 16:27:49 10° SW
H-2A R/B 2.9 16:19:43 10° ESE 16:23:59 27° ENE 16:28:11 10° N
SJ 16-02 3.6 16:21:26 10° NW 16:25:17 31° W 16:29:08 10° SSW
Cosmos 1763 Rocket 3.5 16:22:11 10° S 16:27:09 60° ESE 16:32:12 10° NNE
CZ-4B R/B 2.8 16:24:09 10° SSE 16:28:12 80° ENE 16:32:04 10° N
USA 305 4.0 16:25:11 10° WNW 16:29:00 32° N 16:32:46 10° ENE
USA 276 3.3 16:26:02 10° WNW 16:29:01 43° SSW 16:32:00 10° SE
Cosmos 1656 4.1 16:25:33 10° NNW 16:31:04 69° WSW 16:36:38 10° SSE
Cosmos 1933 3.8 16:29:30 10° SSE 16:33:18 41° E 16:37:06 10° NNE
Cosmos 841 Rocket 4.3 16:29:12 10° SSE 16:33:42 31° E 16:38:12 10° NE
PSLV R/B 4.4 16:31:12 10° SE 16:34:26 30° ENE 16:37:45 10° N
Cosmos 1464 Rocket 4.3 16:28:56 10° SSW 16:35:18 74° W 16:41:43 10° N
USA 229 DEB 4.0 16:28:39 10° NW 16:36:01 86° NE 16:43:50 10° SE
USA 229 4.0 16:28:45 10° NW 16:36:06 86° NE 16:43:56 10° SE
Cosmos 1937 Rocket 3.6 16:32:11 10° NNW 16:37:27 56° ENE 16:42:39 10° SE
Spot 1 4.5 16:35:27 10° NNE 16:40:11 83° WNW 16:45:08 10° SSW
Cosmos 1500 Rocket 3.5 16:35:48 10° N 16:40:16 84° E 16:44:40 10° S
Cosmos 1666 4.0 16:37:50 10° NNE 16:40:27 18° ENE 16:43:03 10° ESE
Nadezhda 4 Rocket 4.2 16:35:45 10° N 16:42:06 81° W 16:48:25 10° S
SeaSat 1 4.5 16:38:34 10° N 16:42:15 22° NW 16:45:56 10° W
SL-24 R/B - RUBIN 2 3.9 16:38:27 10° NNW 16:42:52 43° NE 16:47:01 10° ESE
ATLAS 2AS CENTAUR R/B 4.4 16:37:45 10° WNW 16:43:46 24° NNW 16:49:35 10° NE
Cosmos 2322 Rocket 3.8 16:40:49 10° N 16:43:59 15° NE 16:45:58 13° ENE
Cosmos 990 Rocket 4.3 16:39:11 10° NNW 16:44:23 73° WSW 16:49:31 10° SSE
FengYun 1-2 T 4.3 16:40:14 10° SSE 16:45:50 89° ENE 16:51:26 10° NNW
Cosmos 1697 Rocket 2.6 16:41:07 10° NNW 16:46:47 83° ENE 16:52:24 10° SSE
Cosmos 372 Rocket 4.3 16:43:36 10° NNW 16:48:38 45° ENE 16:53:39 10° SE
NOAA 6 4.0 16:44:06 10° SSE 16:49:14 79° ENE 16:54:23 10° NNW
Sich 1 3.2 16:45:48 10° N 16:49:59 49° ENE 16:54:10 10° SSE
Cosmos 1980 Rocket 2.4 16:45:32 10° NNW 16:51:03 50° ENE 16:56:31 10° SE
Cosmos 2221 3.8 16:47:33 10° SSW 16:51:36 42° WNW 16:55:44 10° N
Cosmos 1805 Rocket 3.5 16:47:41 10° N 16:52:01 66° E 16:56:19 10° SSE
Cosmos 2369 3.7 16:47:18 10° NNW 16:53:01 64° ENE 16:58:42 10° SE
USA 234 3.3 16:48:38 10° SE 16:55:12 90° NNE 17:01:47 10° NW
CZ-4C R/B 3.1 16:50:33 10° NW 16:57:24 53° NE 17:05:28 10° ESE
Cosmos 1092 Rocket 4.0 16:51:38 10° N 16:58:02 82° E 17:04:22 10° S
NOSS 3-1 (A) 4.5 16:52:05 10° NW 16:59:35 71° SW 17:08:20 10° SSE
Cosmos 1812 3.5 16:56:56 10° SSE 17:00:20 30° E 17:02:42 16° NE
Cosmos 1428 Rocket 4.4 16:54:37 10° N 17:00:45 75° E 17:06:55 10° SSE
USA 306 4.0 16:57:30 10° WNW 17:01:19 31° N 17:03:35 19° NE
SL-16 R/B 3.4 16:57:48 10° N 17:02:10 22° NE 17:04:16 18° ENE
ISS -3.8 16:59:28 10° WNW 17:02:51 66° NNE 17:04:58 21° E
Meteor 1-25 Rocket 4.4 16:58:08 10° NNW 17:03:44 79° W 17:09:20 10° S
deb Chang Zheng 4 4.0 17:00:46 10° SE 17:04:43 37° ENE 17:08:42 10° N
MOS 1-B Rocket 4.3 16:59:20 10° NNE 17:05:06 50° E 17:11:35 10° S
NOSS 2-2 (D) 4.3 17:00:01 10° NW 17:05:07 72° NE 17:12:17 10° SE
SMAP 3.3 17:00:37 10° S 17:05:15 74° WSW 17:09:56 10° NNW
NOSS 2-2 (E) 4.4 17:00:11 10° NW 17:05:28 84° NE 17:12:58 10° SE
Cosmos 2082 Rocket 2.4 17:00:42 10° S 17:06:09 50° ESE 17:10:43 15° NE
Cosmos 1939 Rocket 3.5 17:02:27 10° S 17:06:31 61° W 17:10:35 10° NNW
CORIOLIS 4.3 17:02:47 10° SSE 17:08:12 82° WSW 17:13:40 10° NNW
Cosmos 44 Rocket 4.0 17:07:49 10° NNW 17:12:18 33° NE 17:14:23 23° E
Cosmos 2333 Rocket 4.2 17:11:15 10° NNE 17:12:21 10° NNE 17:12:25 10° NNE
CZ-4B DEB 4.3 17:09:02 10° SSE 17:14:34 84° WSW 17:20:06 10° NNW
Meteor 2-16 Rocket 4.5 17:08:36 10° N 17:14:36 55° ENE 17:20:35 10° SSE
Cosmos 2278 3.7 17:11:27 10° NNW 17:17:05 57° ENE 17:22:41 10° SE
Cosmos 1602 4.2 17:13:22 10° NNW 17:17:11 62° W 17:21:00 10° S
USA 307 4.0 17:16:19 10° WNW 17:20:10 31° N 17:21:38 25° NE
Cosmos 540 Rocket 3.5 17:16:01 10° SSW 17:21:07 81° WNW 17:26:08 11° NNE
ARGOS 3.2 17:19:28 10° SE 17:24:44 55° ENE 17:30:01 10° N
Cosmos 1570 Rocket 4.2 17:20:50 10° S 17:25:50 47° ESE 17:28:35 25° NE
Cosmos 2279 Rocket 4.0 17:19:50 10° S 17:25:56 61° E 17:32:02 10° NNE
COSMO-SKYMED 1 2.7 17:23:24 20° NNE 17:26:09 49° E 17:30:22 10° S
COSMOS 2406 3.4 17:21:08 10° SSW 17:26:53 74° WNW 17:32:09 13° NNE
Cosmos 1833 Rocket 3.2 17:22:44 10° SW 17:28:15 57° WNW 17:33:42 11° NNE
Cosmos 1782 3.0 17:25:25 10° SSW 17:29:23 70° W 17:33:23 10° N
Cosmos 2266 Rocket 4.4 17:23:57 10° N 17:29:55 40° ENE 17:35:54 10° SE
Cosmos 1814 Rocket 4.0 17:25:31 10° S 17:30:39 59° ESE 17:33:44 24° NE
ATLAS 5 CENTAUR R/B 2.5 17:25:24 10° NW 17:32:28 39° NNE 17:33:08 36° NE
Cosmos 921 Rocket 4.2 17:30:21 10° SSE 17:32:43 24° SE 17:32:43 24° SE
Cosmos 1633 Rocket 2.9 17:30:50 10° N 17:35:12 67° E 17:39:33 10° SSE
ATLAS CENTAUR R/B 4.1 17:35:27 10° NNW 17:35:50 10° NNW 17:36:14 10° N
Cosmos 1818 3.7 17:31:06 10° NNW 17:36:28 51° NE 17:38:50 30° ESE
YAOGAN 1 4.2 17:39:35 20° NNE 17:39:35 20° NNE 17:41:08 10° N
Cosmos 2219 Rocket 4.3 17:35:42 10° NNE 17:36:28 11° NNE 17:36:28 11° NNE
GEOS 3 Rocket 3.9 17:37:58 33° E 17:39:40 45° NE 17:44:36 10° NNW
CZ-2D R/B 4.1 17:36:17 10° S 17:40:01 52° W 17:43:47 10° NNW
Meteor 2-6 Rocket 4.2 17:35:13 10° S 17:40:50 58° E 17:45:14 16° NNE
SJ-11-01 4.2 17:37:57 10° SSE 17:42:41 77° ENE 17:47:27 10° N
USA 308 3.8 17:38:57 10° WNW 17:42:49 33° N 17:43:13 32° NNE
Cosmos 1634 Rocket 4.3 17:36:39 10° SSW 17:42:57 68° W 17:49:17 10° N
COSMOS 2455 2.9 17:38:12 10° SW 17:44:13 80° NW 17:48:14 23° NNE
CZ-2C R/B 2.4 17:40:35 11° NNE 17:45:36 77° ESE 17:50:46 10° S
Cosmos 1500 4.4 17:43:07 10° NNW 17:46:40 41° W 17:50:10 10° SSW
CZ-4B R/B 3.2 17:41:30 10° SSE 17:46:56 82° WSW 17:52:18 10° NNW
Cosmos 1151 Rocket 3.0 17:44:04 10° S 17:48:24 85° WNW 17:51:27 19° N
SKYMED 3 4.4 17:47:47 25° NNE 17:50:19 88° ESE 17:54:40 10° SSW
Lacrosse 5 rocket 1.6 17:47:06 10° NW 17:50:36 46° NNE 17:50:36 46° NNE
Okean O Rocket 1.5 17:46:34 10° SSE 17:51:01 90° NW 17:55:30 10° NNW
Meteor 2-15 4.3 17:52:13 10° S 17:58:15 66° E 18:03:28 14° NNE
Cosmos 2208 Rocket 3.9 17:54:26 10° SSW 17:59:49 74° ESE 18:01:39 42° NE
Cosmos 1666 Rocket 4.3 17:56:37 10° NNW 18:00:58 54° W 18:05:16 10° S
Meteor 1-10 Rocket 4.2 17:57:00 10° S 18:02:43 64° E 18:04:52 38° NNE
Meteor 1-11 Rocket 3.7 17:57:39 10° N 18:03:12 57° ENE 18:05:45 31° SE
H-2A R/B 3.1 17:58:17 10° S 18:03:14 44° W 18:08:04 10° NNW
USA 267 3.8 18:01:03 29° NE 18:04:09 51° NNW 18:10:25 10° W
Cosmos 1470 Rocket 3.4 17:59:48 10° N 18:04:17 80° E 18:08:45 10° SSE
Cosmos 2150 Rocket 3.9 17:59:26 10° NNW 18:04:34 61° ENE 18:04:48 61° ENE
Cosmos 1328 Rocket 3.6 18:01:29 10° SSW 18:05:55 79° W 18:07:30 40° N
Cosmos 1655 Rocket 3.9 17:59:58 10° N 18:06:25 75° E 18:12:46 10° SSE
Landsat 5 3.3 18:08:41 84° WNW 18:08:41 84° WNW 18:12:41 10° SSW
Cosmos 2360 Rocket 3.5 18:04:09 10° NNW 18:07:10 24° NNE 18:07:10 24° NNE
USA 305 3.9 18:05:36 10° NW 18:08:46 35° NNW 18:08:46 35° NNW
SKYMED 2 4.2 18:12:00 26° N 18:14:14 53° WNW 18:18:27 10° SSW
Cosmos 1666 4.3 18:12:42 10° NNW 18:16:06 34° W 18:19:29 10° SSW
Feng Yun 1-1 Rocket 4.3 18:10:25 10° SSE 18:16:22 88° WSW 18:22:16 10° NNW
ATLAS CENTAUR R/B 3.2 18:13:03 10° WSW 18:20:05 39° NW 18:20:43 37° NNW
Cosmos 1125 Rocket 3.4 18:17:25 10° NNW 18:22:15 72° NNE 18:22:15 72° NNE
Cosmos 2322 Rocket 2.7 18:23:36 10° NNW 18:27:49 46° N 18:27:49 46° N
Cosmos 1980 Rocket 4.1 18:30:01 10° NW 18:34:47 29° WSW 18:39:31 10° SSW
ATLAS 2AS CENTAUR R/B 4.2 18:31:35 10° NW 18:37:26 24° NNE 18:37:26 24° NNE
ISS -0.9 18:36:36 10° W 18:37:58 19° W 18:37:58 19° W
CZ-4C R/B 3.8 18:39:06 10° NW 18:46:12 50° WSW 18:54:18 10° SSE
SL-16 R/B 2.4 18:41:16 10° NNW 18:46:11 66° NW 18:46:11 66° NW
Cosmos 2082 Rocket 3.7 18:45:27 10° WSW 18:50:28 31° NW 18:52:35 24° NNW
Cosmos 44 Rocket 4.4 18:49:19 10° NW 18:53:09 41° W 18:53:09 41° W
Cosmos 2333 Rocket 4.3 18:53:04 10° NNW 18:54:27 17° N 18:54:27 17° N
